Main page
METAR-TAF:

METAR-TAF

Airports :

Kerrville Municipal Airport

Kerrville, Texas, United States

latitude: 29-58N, longitude: 099-05W, elevation: 1617 ft

Current weather observation

The report was made 17 minutes ago, at 10:15 UTC
Calm wind
Temperature 45°F
Humidity 87%
Pressure 30.18 in. Hg
Visibility: 10 miles
Scattered clouds at a height of 800 ft
Overcast at a height of 4700 ft
rain

METAR: KERV 201015Z AUTO 00000KT 10SM RA SCT008 OVC047 07/05 A3018 RMK AO2 T00660051

Time: 04:32 (10:32 UTC)


TAF: missing

Weather observations and forecasts of more than 4000 airports (METAR and TAF reports).

The available stations are represented by yellow and red dots on the map.

Hover mouse over dot to see the name of the station.

Then click to see weather observations and forecasts.

To change the map : click on the green buttons with a black cross to zoom in, on the green button with a dash to zoom out, or on the green arrows for adjacent maps.


METAR-TAF: